Location: Mahannah Oil Field
(37.4664°N, 96.6003°W)
Time: 02:48:20
(UTC+00:00)

deb Explorer IX - Pass Details

Date: 21 January 2021
Orbit: 537 x 1102 km, 38.8° (Epoch: 01 March)

Event Time Altitude Azimuth Distance (km) Brightness Sun altitude
Rises 06:00:19 0° 283° (WNW) 2,996 - -70.6°
Reaches altitude 10° 06:02:52 10° 278° (W) 2,001 - -70.8°
Maximum altitude 06:07:14 48° 204° (SSW) 761 - -71.2°
Drops below altitude 10° 06:11:11 10° 130° (SE) 1,810 - -71.5°
Sets 06:13:24 0° 124° (SE) 2,678 - -71.6°
